Location: North Fort Myers
(26.6673°N, 81.8801°W)
Time: 09:51:50
(UTC+00:00)

N. Korean satellite - Visible Passes

Search period start: 09 August 2022 00:00
Search period end: 19 August 2022 00:00
Orbit: 433 x 471 km, 97.3° (Epoch: 08 August)

Date Brightness Start Highest point End Pass type
(mag) Time Alt. Az. Time Alt. Az. Time Alt. Az.
09 Aug 9.6 09:40:41 10° ENE 09:42:14 12° E 09:43:48 10° ESE visible
11 Aug 8.7 10:03:15 10° NE 10:06:18 28° E 10:09:20 10° SSE visible
13 Aug 6.9 10:26:40 10° NNE 10:30:10 69° E 10:33:38 10° S visible
14 Aug 9.3 09:53:03 10° NE 09:55:38 19° E 09:58:12 10° SE visible
16 Aug 7.7 10:15:58 10° NNE 10:19:20 44° E 10:22:39 10° S visible
17 Aug 9.6 09:42:53 10° ENE 09:44:38 13° E 09:46:24 10° SE visible
